Location: Hains Lake
(37.8540°N, 99.8578°W)
Time: 06:50:18
(UTC+00:00)

Vanguard 1 - Pass Details

Date: 19 April 2021
Orbit: 649 x 3834 km, 34.2° (Epoch: 04 May)

Event Time Altitude Azimuth Distance (km) Brightness Sun altitude
Rises 03:21:47 0° 287° (WNW) 7,805 15.9 -22.7°
Reaches altitude 10° 03:27:27 10° 281° (W) 6,908 15.2 -23.6°
Maximum altitude 03:47:56 41° 222° (SW) 4,478 13.3 -26.7°
Enters shadow 03:58:17 25° 173° (S) 4,703 13.0 -28.2°
